FLOCK 3P-63 (42035 NORAD) Tracking and Keplerian Element Data

This shows tracking and keplerian element data for the satellite.

Feedback or suggestion? Click here.




ElementValue
Catalog42035
NameFLOCK 3P-63
Epoch Orbit17527
Epoch Day115.11948324
Epoch Year2020
RAAN183.6764
Inclination97.3673
Eccentricity0.0008811
Argument of Perigee139.5562
Mean Anonmoly220.6333
Mean Motion15.2680398
Decay Rate2.592E-05
L11 42035U 17008CR 20115.11948324 .00002592 00000-0 10111-3 0 9996
L22 42035 97.3673 183.6764 0008811 139.5562 220.6333 15.26803980175278



Live tracking and technical data element details for FLOCK 3P-63 (NORAD 42035). FLOCK 3P-63 can be tracked NOW for your location showing map with azimuth and elevation plus other details from your city location.







IsCatalogInMostPopularTable: catalog: 42035, numindb: 749
Update: records affected: 1



GetName: 42035 FLOCK 3P-63

Hit Count: updated at: Sat, 17 May 2025 06:43:43 GMT